Teterboro, NJ

3:34 AM EDT on April 26, 2017 (GMT -0400)
Teterboro

Weather History for KTEB - March, 2013

Change the Weather History Date:

Wednesday, March 20, 2013

  Actual Average Record
Temperature  
Mean Temperature 38 °F -  
Max Temperature 45 °F 47 °F 75 °F (2012)
Min Temperature 30 °F 31 °F 21 °F (1993)
Degree Days  
Heating Degree Days 28    
Moisture  
Dew Point 20 °F    
Average Humidity 49    
Maximum Humidity 72    
Minimum Humidity 36    
Precipitation  
Precipitation 0.00 in - - ()
Sea Level Pressure  
Sea Level Pressure 29.83 in    
Wind  
Wind Speed 9 mph (West)    
Max Wind Speed 17 mph    
Max Gust Speed 26 mph    
Visibility 10 miles    
Events      
Averages and records for this station are not official NWS values.
T = Trace of Precipitation, MM = Missing Value Source: NWS Daily Summary

Daily Weather History Graph

Daily Weather History Graph

Search for Another Location

Airport or City:

Trip Planner

Search our weather history database for the weather conditions in past years. The results will help you decide how hot, cold, wet, or windy it might be!

Date:

Astronomy

Mar. 20, 2013 Rise Set
Actual Time 6:59 AM EDT 7:08 PM EDT
Civil Twilight 6:31 AM EDT 7:35 PM EDT
Nautical Twilight 5:59 AM EDT 8:08 PM EDT
Astronomical Twilight 5:27 AM EDT 8:40 PM EDT
Moon 12:39 PM EDT (3/20) 2:39 AM EDT (3/20)
Length of Visible Light 13h 04m
Length of Day
12h 09m
First Quarter, 59% of the Moon is Illuminated
Mar 20
First Quarter
Mar 27
Full
Apr 3
Last Quarter
Apr 10
New
Apr 18
First Quarter

Hourly Weather History & Observations

Time (EDT) Temp. Windchill Dew Point Humidity Pressure Visibility Wind Dir Wind Speed Gust Speed Precip Events Conditions
12:51 AM 35.1 °F 30.1 °F 27.0 °F 72% 29.82 in 10.0 mi West 5.8 mph - N/A   Clear
1:51 AM 35.1 °F 28.6 °F 23.0 °F 61% 29.84 in 10.0 mi WNW 8.1 mph - N/A   Scattered Clouds
2:51 AM 34.0 °F 24.2 °F 17.1 °F 50% 29.85 in 10.0 mi WNW 15.0 mph 20.7 mph N/A   Clear
3:51 AM 33.1 °F 26.1 °F 18.0 °F 54% 29.86 in 10.0 mi WSW 8.1 mph - N/A   Clear
4:51 AM 33.1 °F 24.9 °F 18.0 °F 54% 29.87 in 10.0 mi West 10.4 mph - N/A   Clear
5:51 AM 30.9 °F 24.3 °F 18.0 °F 59% 29.88 in 10.0 mi SW 6.9 mph - N/A   Clear
6:51 AM 30.9 °F 24.3 °F 19.0 °F 61% 29.88 in 10.0 mi SW 6.9 mph - N/A   Mostly Cloudy
7:51 AM 33.1 °F 26.1 °F 18.0 °F 54% 29.88 in 10.0 mi WSW 8.1 mph - N/A   Clear
8:51 AM 35.1 °F 26.4 °F 17.1 °F 48% 29.87 in 10.0 mi West 12.7 mph 20.7 mph N/A   Clear
9:51 AM 37.0 °F 27.7 °F 17.1 °F 44% 29.87 in 10.0 mi WNW 16.1 mph 24.2 mph N/A   Partly Cloudy
10:51 AM 36.0 °F 26.3 °F 18.0 °F 48% 29.88 in 10.0 mi West 16.1 mph 26.5 mph N/A   Mostly Cloudy
11:51 AM 39.0 °F 31.0 °F 21.0 °F 49% 29.87 in 10.0 mi West 13.8 mph 23.0 mph N/A   Mostly Cloudy
12:51 PM 39.9 °F 32.5 °F 21.0 °F 47% 29.85 in 10.0 mi WSW 12.7 mph 19.6 mph N/A   Scattered Clouds
1:51 PM 42.1 °F 34.2 °F 19.0 °F 40% 29.83 in 10.0 mi West 16.1 mph 20.7 mph N/A   Partly Cloudy
2:51 PM 44.1 °F 38.1 °F 19.9 °F 38% 29.80 in 10.0 mi WNW 11.5 mph - N/A   Partly Cloudy
3:51 PM 44.1 °F 37.4 °F 19.9 °F 38% 29.78 in 10.0 mi WNW 13.8 mph 25.3 mph N/A   Mostly Cloudy
4:51 PM 44.1 °F 37.7 °F 19.9 °F 38% 29.78 in 10.0 mi NW 12.7 mph 19.6 mph N/A   Overcast
5:51 PM 45.0 °F 37.6 °F 19.0 °F 36% 29.78 in 10.0 mi West 17.3 mph 23.0 mph N/A   Overcast
6:51 PM 42.1 °F 40.2 °F 21.0 °F 43% 29.79 in 10.0 mi WNW 3.5 mph - N/A   Mostly Cloudy
7:51 PM 39.9 °F 36.7 °F 19.0 °F 43% 29.79 in 10.0 mi NW 4.6 mph - N/A   Clear
8:51 PM 39.0 °F 35.7 °F 19.9 °F 46% 29.80 in 10.0 mi WNW 4.6 mph - N/A   Overcast
9:51 PM 39.9 °F - 19.9 °F 45% 29.81 in 10.0 mi Calm Calm - N/A   Overcast
10:51 PM 39.0 °F 32.3 °F 19.9 °F 46% 29.83 in 10.0 mi North 10.4 mph - N/A   Overcast
11:51 PM 37.0 °F 33.3 °F 21.9 °F 54% 29.83 in 10.0 mi North 4.6 mph - N/A   Overcast